Simultaneous Nadir Overpasses (SNOs) Predictions

Prediction of SNOs between GOES-17 and NOAA-21 Satellite Orbit:

Table of predicted SNOs for the next 14.0 days since TLE Epoch: 3/1/2024
Index Date Time (GOES-17) GOES-17 Lat,Lon NOAA-21 Lat,Lon Distance(km) Time Diff (sec)
1 03/02/2024 08:16:28 0.01,-104.70 -0.27,-103.57 129.42 80
2 03/03/2024 20:38:26 -0.01,-104.68 -0.96,-108.87 477.88 80
3 03/04/2024 20:22:23 -0.02,-104.68 0.04,-104.34 38.05 80
4 03/07/2024 08:25:30 0.02,-104.69 0.11,-105.09 45.46 80
5 03/08/2024 08:04:06 0.02,-104.69 -0.89,-100.56 470.23 80
6 03/09/2024 20:26:05 -0.02,-104.67 -0.32,-105.87 137.23 80
7 03/10/2024 20:10:02 -0.02,-104.67 0.74,-101.35 378.86 80
8 03/12/2024 08:31:51 0.02,-104.70 0.46,-106.62 219.73 80
9 03/13/2024 08:10:28 0.02,-104.70 -0.55,-102.09 296.27 80
10 03/14/2024 20:32:26 -0.03,-104.67 -0.64,-107.40 311.08 80
